Olathe, KS

2:39 PM CDT on July 25, 2017 (GMT -0500)
Johnson County Executive

Weather History for KOJC - April, 2013

Change the Weather History Date:

Saturday, April 27, 2013

  Actual Average Record
Temperature  
Mean Temperature 51 °F 59 °F  
Max Temperature 54 °F 69 °F 89 °F (1956)
Min Temperature 47 °F 49 °F 33 °F (1967)
Degree Days  
Heating Degree Days 14 7  
Month to date heating degree days 444 295  
Since 1 July heating degree days 4922 4812  
Cooling Degree Days 0 1  
Month to date cooling degree days 0 19  
Year to date cooling degree days 1 20  
Moisture  
Dew Point 46 °F    
Average Humidity 89    
Maximum Humidity 100    
Minimum Humidity 77    
Precipitation  
Precipitation 0.39 in 0.17 in 2.80 in (1940)
Month to date precipitation 4.09 3.41  
Year to date precipitation 9.29 8.73  
Sea Level Pressure  
Sea Level Pressure 30.09 in    
Wind  
Wind Speed 5 mph (NE)    
Max Wind Speed 10 mph    
Max Gust Speed 15 mph    
Visibility 8 miles    
Events Rain    
T = Trace of Precipitation, MM = Missing Value Source: NWS Daily Summary

Daily Weather History Graph

Daily Weather History Graph

Search for Another Location

Airport or City:

Trip Planner

Search our weather history database for the weather conditions in past years. The results will help you decide how hot, cold, wet, or windy it might be!

Date:

Astronomy

Apr. 27, 2013 Rise Set
Actual Time 6:25 AM CDT 8:07 PM CDT
Civil Twilight 5:57 AM CDT 8:36 PM CDT
Nautical Twilight 5:23 AM CDT 9:10 PM CDT
Astronomical Twilight 4:46 AM CDT 9:47 PM CDT
Moon 10:37 PM CDT (4/27) 7:46 AM CDT (4/27)
Length of Visible Light 14h 38m
Length of Day
13h 42m
Waning Gibbous, 95% of the Moon is Illuminated
Apr 27
Waning Gibbous
May 2
Last Quarter
May 9
New
May 17
First Quarter
May 24
Full

Hourly Weather History & Observations

Time (CDT) Temp. Windchill Dew Point Humidity Pressure Visibility Wind Dir Wind Speed Gust Speed Precip Events Conditions
12:53 AM 46.9 °F - 46.0 °F 97% 30.20 in 7.0 mi East 6.9 mph - 0.01 in Rain Light Rain
1:53 AM 46.9 °F - 46.0 °F 97% 30.17 in 7.0 mi ESE 6.9 mph - 0.07 in Rain Light Rain
2:53 AM 46.9 °F - 45.0 °F 93% 30.14 in 10.0 mi East 8.1 mph - 0.01 in Rain Light Rain
3:51 AM 46.4 °F 42.9 °F 44.6 °F 93% 30.12 in 4.0 mi ENE 6.9 mph - 0.10 in Rain Rain
3:53 AM 46.9 °F - 45.0 °F 93% 30.12 in 3.0 mi East 8.1 mph - 0.11 in Rain Rain
4:53 AM 46.9 °F - 45.0 °F 93% 30.12 in 5.0 mi East 6.9 mph - 0.06 in Rain Light Rain
5:40 AM 46.4 °F 45.2 °F 44.6 °F 93% 30.11 in 5.0 mi ENE 3.5 mph - 0.02 in Rain Light Rain
5:53 AM 46.9 °F - 45.0 °F 93% 30.12 in 7.0 mi ENE 5.8 mph - 0.02 in Rain Light Rain
6:53 AM 46.9 °F - 45.0 °F 93% 30.12 in 5.0 mi NE 5.8 mph - 0.03 in Rain Light Rain
7:51 AM 46.4 °F 42.9 °F 46.4 °F 100% 30.12 in 5.0 mi NNE 6.9 mph - 0.06 in Rain Light Rain
7:53 AM 46.9 °F - 46.0 °F 97% 30.13 in 5.0 mi NNE 6.9 mph - 0.06 in Rain Light Rain
8:36 AM 48.2 °F - 46.4 °F 93% 30.12 in 5.0 mi NNE 6.9 mph - 0.02 in Rain Light Rain
8:53 AM 48.0 °F - 46.0 °F 93% 30.13 in 7.0 mi NNE 6.9 mph - 0.03 in Rain Light Rain
9:53 AM 48.0 °F - 46.0 °F 93% 30.12 in 10.0 mi NE 9.2 mph - 0.00 in   Overcast
10:53 AM 50.0 °F - 46.9 °F 89% 30.12 in 10.0 mi ENE 6.9 mph - N/A   Overcast
11:53 AM 51.1 °F - 48.0 °F 89% 30.12 in 10.0 mi ENE 6.9 mph - N/A   Overcast
12:53 PM 51.1 °F - 46.9 °F 86% 30.11 in 10.0 mi NE 5.8 mph - N/A   Overcast
1:53 PM 52.0 °F - 46.9 °F 83% 30.10 in 10.0 mi North 6.9 mph - N/A   Overcast
2:53 PM 52.0 °F - 46.9 °F 83% 30.09 in 10.0 mi NNE 8.1 mph - N/A   Overcast
3:53 PM 54.0 °F - 46.9 °F 77% 30.06 in 9.0 mi North 4.6 mph - N/A   Overcast
4:30 PM 53.6 °F - 46.4 °F 77% 30.06 in 10.0 mi North 6.9 mph - N/A   Overcast
4:53 PM 54.0 °F - 46.9 °F 77% 30.05 in 10.0 mi North 5.8 mph - N/A   Overcast
5:53 PM 53.1 °F - 46.9 °F 80% 30.04 in 10.0 mi NNW 4.6 mph - N/A   Overcast
6:53 PM 53.1 °F - 46.9 °F 80% 30.03 in 10.0 mi North 3.5 mph - N/A   Overcast
7:53 PM 53.1 °F - 46.9 °F 80% 30.02 in 10.0 mi Calm Calm - N/A   Overcast
8:53 PM 52.0 °F - 48.0 °F 86% 30.02 in 10.0 mi Calm Calm - N/A   Overcast
9:53 PM 51.1 °F - 48.0 °F 89% 30.03 in 10.0 mi Calm Calm - N/A   Overcast
10:53 PM 51.1 °F - 48.9 °F 92% 30.03 in 10.0 mi Calm Calm - N/A   Overcast
11:46 PM 50.0 °F - 46.4 °F 87% 30.01 in 7.0 mi SW 4.6 mph - N/A   Scattered Clouds
11:53 PM 50.0 °F - 46.9 °F 89% 30.01 in 7.0 mi SW 4.6 mph - N/A   Partly Cloudy